This demonstration page uses our WeatherBlox Daily Observations layout. Learn more.

Left ArrowRight Arrow

Hourly Observations for January 16, 2018

Temp ( °F °C ) Dew Point ( °F °C ) Humidity (%) Winds ( mph kmh ) Pressure ( in mb ) Visibility ( mi km ) Precip ( " mm )
12:53 am 00:53 Cloudy 29 -1.7 1 -17.2 30 30 NE 16 26 30.58 1036 10 16 0.00 0.00
1:53 am 01:53 Cloudy 28 -2.2 0 -17.8 29 29 NE 13 20 30.58 1036 10 16 0.00 0.00
2:53 am 02:53 Cloudy 28 -2.2 1 -17.2 31 31 NNE 14 22 30.60 1036 10 16 0.00 0.00
3:53 am 03:53 Cloudy 27 -2.8 3 -16.1 35 35 NNE 12 19 30.61 1037 10 16 0.00 0.00
4:53 am 04:53 Cloudy 26 -3.3 1 -17.2 34 34 NE 13 20 30.63 1037 10 16 0.00 0.00
5:53 am 05:53 Cloudy 26 -3.3 -1 -18.3 31 31 NE 13 20 30.66 1038 10 16 0.00 0.00
6:53 am 06:53 Cloudy 26 -3.3 -2 -18.9 29 29 NE 10 17 30.69 1039 10 16 0.00 0.00
7:53 am 07:53 Cloudy 25 -3.9 -2 -18.9 30 30 undefined N/A 30.71 1040 10 16 0.00 0.00
8:53 am 08:53 Cloudy 26 -3.3 -2 -18.9 29 29 ENE 7 11 30.73 1041 10 16 0.00 0.00
9:53 am 09:53 Cloudy 26 -3.3 -2 -18.9 29 29 E 6 9 30.73 1041 10 16 0.00 0.00
10:53 am 10:53 Cloudy 27 -2.8 -2 -18.9 28 28 E 6 9 30.76 1042 10 16 0.00 0.00
11:53 am 11:53 Cloudy 28 -2.2 -2 -18.9 27 27 VRB 3 6 30.75 1041 10 16 0.00 0.00
12:53 pm 12:53 Cloudy 29 -1.7 -3 -19.4 25 25 E 6 9 30.71 1040 10 16 0.00 0.00
1:53 pm 13:53 Cloudy 29 -1.7 -3 -19.4 25 25 Calm 30.68 1039 10 16 0.00 0.00
2:53 pm 14:53 Cloudy 30 -1.1 -2 -18.9 25 25 NE 5 7 30.65 1038 10 16 0.00 0.00
3:53 pm 15:53 Cloudy 30 -1.1 -2 -18.9 25 25 Calm 30.63 1037 10 16 0.00 0.00
4:53 pm 16:53 Cloudy 30 -1.1 -2 -18.9 25 25 Calm 30.62 1037 10 16 0.00 0.00
5:53 pm 17:53 Cloudy 30 -1.1 -2 -18.9 25 25 Calm 30.61 1037 10 16 0.00 0.00
6:53 pm 18:53 Cloudy 30 -1.1 -2 -18.9 25 25 SSW 5 7 30.61 1037 10 16 0.00 0.00
7:53 pm 19:53 Cloudy 29 -1.7 -2 -18.9 26 26 S 6 9 30.63 1037 10 16 0.00 0.00
8:53 pm 20:53 Cloudy 29 -1.7 -2 -18.9 26 26 S 7 11 30.63 1037 10 16 0.00 0.00
9:53 pm 21:53 Cloudy 28 -2.2 -2 -18.9 27 27 S 8 13 30.64 1038 10 16 0.00 0.00
10:53 pm 22:53 Cloudy 28 -2.2 -2 -18.9 27 27 S 7 11 30.64 1038 10 16 0.00 0.00
11:53 pm 23:53 Cloudy 28 -2.2 -2 -18.9 27 27 S 9 15 30.64 1038 10 16 0.00 0.00

Powered by AerisWeather